Year,Month,Day,Hour,Minute,Value (Times are PST for temperature in C)
2011,06,29,00,02,15.10
2011,06,29,00,04,15.10
2011,06,29,00,05,15.10
2011,06,29,00,07,15.10
2011,06,29,00,08,15.10
2011,06,29,00,10,15.10
2011,06,29,00,12,15.10
2011,06,29,00,15,15.00
2011,06,29,00,17,15.10
2011,06,29,00,18,15.00
2011,06,29,00,19,15.00
2011,06,29,00,20,15.10
2011,06,29,00,22,15.10
2011,06,29,00,24,15.10
2011,06,29,00,25,15.10
2011,06,29,00,27,15.10
2011,06,29,00,28,15.10
2011,06,29,00,30,15.10
2011,06,29,00,32,15.20
2011,06,29,00,34,15.20
2011,06,29,00,35,15.20
2011,06,29,00,36,15.20
2011,06,29,00,38,15.20
2011,06,29,00,39,15.20
2011,06,29,00,41,15.20
2011,06,29,00,42,15.10
2011,06,29,00,43,15.10
2011,06,29,00,44,15.10
2011,06,29,00,46,15.10
2011,06,29,00,47,15.10
2011,06,29,00,49,15.10
2011,06,29,00,51,15.10
2011,06,29,00,52,15.00
2011,06,29,00,53,15.00
2011,06,29,00,54,15.00
2011,06,29,00,56,15.00
2011,06,29,00,57,15.00
2011,06,29,00,58,15.00
2011,06,29,00,59,15.00
2011,06,29,01,01,15.00
2011,06,29,01,03,15.00
2011,06,29,01,06,15.00
2011,06,29,01,07,15.00
2011,06,29,01,08,15.00
2011,06,29,01,09,15.00
2011,06,29,01,11,15.10
2011,06,29,01,13,15.10
2011,06,29,01,16,15.10
2011,06,29,01,18,15.10
2011,06,29,01,19,15.10
2011,06,29,01,21,15.10
2011,06,29,01,22,15.10
2011,06,29,01,23,15.10
2011,06,29,01,24,15.10
2011,06,29,01,25,15.10
2011,06,29,01,27,15.10
2011,06,29,01,28,15.10
2011,06,29,01,29,15.00
2011,06,29,01,30,15.00
2011,06,29,01,31,15.00
2011,06,29,01,32,14.90
2011,06,29,01,33,14.90
2011,06,29,01,34,14.90
2011,06,29,01,36,14.90
2011,06,29,01,37,14.90
2011,06,29,01,38,14.90
2011,06,29,01,39,14.80
2011,06,29,01,40,14.80
2011,06,29,01,41,14.80
2011,06,29,01,42,14.80
2011,06,29,01,43,14.80
2011,06,29,01,45,14.80
2011,06,29,01,46,14.70
2011,06,29,01,48,14.70
2011,06,29,01,49,14.70
2011,06,29,01,50,14.70
2011,06,29,01,51,14.60
2011,06,29,01,52,14.60
2011,06,29,01,53,14.60
2011,06,29,01,55,14.60
2011,06,29,01,56,14.60
2011,06,29,01,57,14.60
2011,06,29,01,58,14.50
2011,06,29,01,59,14.50
2011,06,29,02,00,14.50
2011,06,29,02,01,14.50
2011,06,29,02,02,14.40
2011,06,29,02,03,14.40
2011,06,29,02,05,14.40
2011,06,29,02,06,14.40
2011,06,29,02,07,14.40
2011,06,29,02,08,14.40
2011,06,29,02,10,14.40
2011,06,29,02,11,14.40
2011,06,29,02,12,14.40
2011,06,29,02,13,14.40
2011,06,29,02,15,14.40
2011,06,29,02,16,14.40
2011,06,29,02,17,14.30
2011,06,29,02,19,14.40
2011,06,29,02,20,14.30
2011,06,29,02,21,14.40
2011,06,29,02,22,14.40
2011,06,29,02,24,14.30
2011,06,29,02,25,14.30
2011,06,29,02,26,14.30
2011,06,29,02,28,14.30
2011,06,29,02,29,14.30
2011,06,29,02,30,14.30
2011,06,29,02,31,14.30
2011,06,29,02,32,14.30
2011,06,29,02,34,14.30
2011,06,29,02,35,14.30
2011,06,29,02,36,14.30
2011,06,29,02,37,14.40
2011,06,29,02,39,14.40
2011,06,29,02,40,14.40
2011,06,29,02,41,14.40
2011,06,29,02,42,14.40
2011,06,29,02,43,14.40
2011,06,29,02,45,14.40
2011,06,29,02,46,14.40
2011,06,29,02,47,14.40
2011,06,29,02,48,14.40
2011,06,29,02,49,14.40
2011,06,29,02,50,14.40
2011,06,29,02,51,14.40
2011,06,29,02,52,14.40
2011,06,29,02,53,14.50
2011,06,29,02,55,14.50
2011,06,29,02,56,14.60
2011,06,29,02,57,14.60
2011,06,29,02,58,14.60
2011,06,29,02,59,14.60
2011,06,29,03,00,14.60
2011,06,29,03,01,14.70
2011,06,29,03,02,14.70
2011,06,29,03,03,14.70
2011,06,29,03,04,14.70
2011,06,29,03,06,14.80
2011,06,29,03,07,14.80
2011,06,29,03,08,14.80
2011,06,29,03,10,14.80
2011,06,29,03,11,14.90
2011,06,29,03,12,14.90
2011,06,29,03,13,14.90
2011,06,29,03,15,14.90
2011,06,29,03,16,14.90
2011,06,29,03,17,14.90
2011,06,29,03,20,14.90
2011,06,29,03,21,14.90
2011,06,29,03,23,14.90
2011,06,29,03,24,14.90
2011,06,29,03,25,14.90
2011,06,29,03,26,14.90
2011,06,29,03,27,14.90
2011,06,29,03,28,14.90
2011,06,29,03,30,14.90
2011,06,29,03,31,14.90
2011,06,29,03,32,14.90
2011,06,29,03,33,14.90
2011,06,29,03,34,14.90
2011,06,29,03,35,14.90
2011,06,29,03,36,14.90
2011,06,29,03,38,14.90
2011,06,29,03,39,14.90
2011,06,29,03,40,14.90
2011,06,29,03,41,14.90
2011,06,29,03,42,14.90
2011,06,29,03,43,14.90
2011,06,29,03,44,14.90
2011,06,29,03,45,14.90
2011,06,29,03,47,14.90
2011,06,29,03,48,14.90
2011,06,29,03,49,14.90
2011,06,29,03,50,14.90
2011,06,29,03,51,14.90
2011,06,29,03,53,14.90
2011,06,29,03,54,15.00
2011,06,29,03,55,15.00
2011,06,29,03,56,15.00
2011,06,29,03,58,15.10
2011,06,29,03,59,15.10
2011,06,29,04,00,15.10
2011,06,29,04,01,15.10
2011,06,29,04,03,15.10
2011,06,29,04,04,15.20
2011,06,29,04,05,15.20
2011,06,29,04,06,15.20
2011,06,29,04,07,15.20
2011,06,29,04,08,15.20
2011,06,29,04,09,15.20
2011,06,29,04,10,15.20
2011,06,29,04,11,15.20
2011,06,29,04,12,15.20
2011,06,29,04,13,15.20
2011,06,29,04,14,15.20
2011,06,29,04,15,15.30
2011,06,29,04,17,15.20
2011,06,29,04,18,15.30
2011,06,29,04,19,15.30
2011,06,29,04,20,15.20
2011,06,29,04,22,15.20
2011,06,29,04,23,15.20
2011,06,29,04,24,15.20
2011,06,29,04,25,15.20
2011,06,29,04,26,15.20
2011,06,29,04,28,15.20
2011,06,29,04,29,15.20
2011,06,29,04,30,15.20
2011,06,29,04,32,15.20
2011,06,29,04,33,15.20
2011,06,29,04,34,15.20
2011,06,29,04,35,15.20
2011,06,29,04,36,15.20
2011,06,29,04,38,15.20
2011,06,29,04,39,15.20
2011,06,29,04,40,15.20
2011,06,29,04,41,15.20
2011,06,29,04,43,15.20
2011,06,29,04,44,15.20
2011,06,29,04,45,15.20
2011,06,29,04,46,15.20
2011,06,29,04,47,15.20
2011,06,29,04,48,15.20
2011,06,29,04,49,15.20
2011,06,29,04,50,15.20
2011,06,29,04,52,15.20
2011,06,29,04,53,15.20
2011,06,29,04,54,15.20
2011,06,29,04,55,15.20
2011,06,29,04,57,15.20
2011,06,29,04,58,15.10
2011,06,29,04,59,15.10
2011,06,29,05,00,15.10
2011,06,29,05,01,15.10
2011,06,29,05,03,15.10
2011,06,29,05,04,15.10
2011,06,29,05,05,15.10
2011,06,29,05,06,15.10
2011,06,29,05,07,15.10
2011,06,29,05,09,15.10
2011,06,29,05,10,15.10
2011,06,29,05,11,15.10
2011,06,29,05,12,15.10
2011,06,29,05,14,15.10
2011,06,29,05,15,15.10
2011,06,29,05,16,15.10
2011,06,29,05,17,15.10
2011,06,29,05,18,15.10
2011,06,29,05,19,15.10
2011,06,29,05,20,15.10
2011,06,29,05,21,15.10
2011,06,29,05,22,15.10
2011,06,29,05,23,15.10
2011,06,29,05,24,15.10
2011,06,29,05,25,15.10
2011,06,29,05,26,15.10
2011,06,29,05,27,15.10
2011,06,29,05,28,15.10
2011,06,29,05,29,15.00
2011,06,29,05,30,15.00
2011,06,29,05,31,15.00
2011,06,29,05,32,14.90
2011,06,29,05,33,14.90
2011,06,29,05,34,14.90
2011,06,29,05,35,14.90
2011,06,29,05,36,14.90
2011,06,29,05,37,14.90
2011,06,29,05,38,14.90
2011,06,29,05,39,14.90
2011,06,29,05,40,14.90
2011,06,29,05,41,14.80
2011,06,29,05,43,14.80
2011,06,29,05,44,14.80
2011,06,29,05,45,14.80
2011,06,29,05,46,14.80
2011,06,29,05,47,14.80
2011,06,29,05,48,14.80
2011,06,29,05,49,14.80
2011,06,29,05,50,14.70
2011,06,29,05,51,14.70
2011,06,29,05,52,14.70
2011,06,29,05,53,14.70
2011,06,29,05,54,14.60
2011,06,29,05,55,14.60
2011,06,29,05,56,14.60
2011,06,29,05,57,14.50
2011,06,29,05,58,14.50
2011,06,29,05,59,14.40
2011,06,29,06,00,14.40
2011,06,29,06,02,14.40
2011,06,29,06,03,14.40
2011,06,29,06,04,14.30
2011,06,29,06,05,14.30
2011,06,29,06,07,14.30
2011,06,29,06,08,14.30
2011,06,29,06,09,14.20
2011,06,29,06,10,14.20
2011,06,29,06,11,14.20
2011,06,29,06,12,14.20
2011,06,29,06,13,14.20
2011,06,29,06,14,14.10
2011,06,29,06,15,14.10
2011,06,29,06,16,14.10
2011,06,29,06,17,14.10
2011,06,29,06,18,14.00
2011,06,29,06,19,14.00
2011,06,29,06,20,14.00
2011,06,29,06,21,13.90
2011,06,29,06,22,13.90
2011,06,29,06,23,13.90
2011,06,29,06,24,13.90
2011,06,29,06,25,13.90
2011,06,29,06,26,13.90
2011,06,29,06,27,13.90
2011,06,29,06,28,13.90
2011,06,29,06,29,13.90
2011,06,29,06,30,13.80
2011,06,29,06,32,13.80
2011,06,29,06,33,13.80
2011,06,29,06,34,13.80
2011,06,29,06,35,13.80
2011,06,29,06,36,13.80
2011,06,29,06,37,13.80
2011,06,29,06,38,13.80
2011,06,29,06,39,13.70
2011,06,29,06,40,13.70
2011,06,29,06,41,13.70
2011,06,29,06,42,13.70
2011,06,29,06,43,13.70
2011,06,29,06,45,13.70
2011,06,29,06,46,13.70
2011,06,29,06,47,13.60
2011,06,29,06,48,13.60
2011,06,29,06,49,13.60
2011,06,29,06,50,13.60
2011,06,29,06,51,13.60
2011,06,29,06,52,13.60
2011,06,29,06,53,13.60
2011,06,29,06,54,13.60
2011,06,29,06,55,13.50
2011,06,29,06,56,13.50
2011,06,29,06,58,13.50
2011,06,29,06,59,13.50
2011,06,29,07,00,13.50
2011,06,29,07,01,13.50
2011,06,29,07,02,13.50
2011,06,29,07,03,13.40
2011,06,29,07,04,13.40
2011,06,29,07,05,13.40
2011,06,29,07,06,13.40
2011,06,29,07,08,13.40
2011,06,29,07,09,13.40
2011,06,29,07,10,13.40
2011,06,29,07,12,13.40
2011,06,29,07,13,13.40
2011,06,29,07,14,13.40
2011,06,29,07,15,13.50
2011,06,29,07,17,13.50
2011,06,29,07,18,13.50
2011,06,29,07,19,13.60
2011,06,29,07,20,13.60
2011,06,29,07,22,13.60
2011,06,29,07,23,13.60
2011,06,29,07,24,13.60
2011,06,29,07,26,13.60
2011,06,29,07,27,13.60
2011,06,29,07,28,13.60
2011,06,29,07,29,13.70
2011,06,29,07,31,13.70
2011,06,29,07,32,13.70
2011,06,29,07,33,13.70
2011,06,29,07,34,13.70
2011,06,29,07,35,13.70
2011,06,29,07,36,13.70
2011,06,29,07,37,13.80
2011,06,29,07,38,13.80
2011,06,29,07,39,13.80
2011,06,29,07,40,13.80
2011,06,29,07,41,13.80
2011,06,29,07,42,13.80
2011,06,29,07,44,13.90
2011,06,29,07,45,13.90
2011,06,29,07,46,14.00
2011,06,29,07,47,14.00
2011,06,29,07,49,14.00
2011,06,29,07,50,14.10
2011,06,29,07,51,14.10
2011,06,29,07,52,14.20
2011,06,29,07,53,14.20
2011,06,29,07,54,14.20
2011,06,29,07,55,14.30
2011,06,29,07,56,14.30
2011,06,29,07,58,14.30
2011,06,29,07,59,14.30
2011,06,29,08,00,14.30
2011,06,29,08,01,14.40
2011,06,29,08,02,14.40
2011,06,29,08,04,14.50
2011,06,29,08,05,14.60
2011,06,29,08,06,14.60
2011,06,29,08,08,14.60
2011,06,29,08,09,14.60
2011,06,29,08,10,14.70
2011,06,29,08,11,14.70
2011,06,29,08,13,14.70
2011,06,29,08,14,14.70
2011,06,29,08,15,14.70
2011,06,29,08,17,14.70
2011,06,29,08,18,14.70
2011,06,29,08,19,14.70
2011,06,29,08,20,14.70
2011,06,29,08,22,14.70
2011,06,29,08,23,14.70
2011,06,29,08,24,14.70
2011,06,29,08,25,14.60
2011,06,29,08,27,14.60
2011,06,29,08,28,14.60
2011,06,29,08,29,14.40
2011,06,29,08,30,14.40
2011,06,29,08,31,14.40
2011,06,29,08,33,14.30
2011,06,29,08,34,14.30
2011,06,29,08,35,14.20
2011,06,29,08,36,14.20
2011,06,29,08,37,14.20
2011,06,29,08,38,14.20
2011,06,29,08,39,14.30
2011,06,29,08,40,14.30
2011,06,29,08,41,14.20
2011,06,29,08,43,14.20
2011,06,29,08,44,14.20
2011,06,29,08,45,14.30
2011,06,29,08,46,14.30
2011,06,29,08,47,14.30
2011,06,29,08,48,14.30
2011,06,29,08,49,14.30
2011,06,29,08,50,14.30
2011,06,29,08,51,14.30
2011,06,29,08,53,14.30
2011,06,29,08,54,14.30
2011,06,29,08,55,14.30
2011,06,29,08,56,14.30
2011,06,29,08,57,14.30
2011,06,29,08,58,14.30
2011,06,29,08,59,14.30
2011,06,29,09,00,14.40
2011,06,29,09,01,14.40
2011,06,29,09,02,14.40
2011,06,29,09,03,14.50
2011,06,29,09,04,14.50
2011,06,29,09,05,14.50
2011,06,29,09,07,14.50
2011,06,29,09,08,14.50
2011,06,29,09,09,14.60
2011,06,29,09,10,14.50
2011,06,29,09,11,14.50
2011,06,29,09,12,14.50
2011,06,29,09,13,14.50
2011,06,29,09,14,14.40
2011,06,29,09,16,14.40
2011,06,29,09,17,14.40
2011,06,29,09,18,14.40
2011,06,29,09,20,14.40
2011,06,29,09,21,14.30
2011,06,29,09,22,14.20
2011,06,29,09,23,14.20
2011,06,29,09,25,14.10
2011,06,29,09,26,13.90
2011,06,29,09,27,13.90
2011,06,29,09,28,13.80
2011,06,29,09,29,13.80
2011,06,29,09,31,13.70
2011,06,29,09,32,13.70
2011,06,29,09,33,13.60
2011,06,29,09,34,13.60
2011,06,29,09,35,13.50
2011,06,29,09,37,13.50
2011,06,29,09,38,13.40
2011,06,29,09,39,13.40
2011,06,29,09,40,13.40
2011,06,29,09,42,13.30
2011,06,29,09,43,13.30
2011,06,29,09,44,13.30
2011,06,29,09,45,13.30
2011,06,29,09,46,13.30
2011,06,29,09,47,13.30
2011,06,29,09,48,13.30
2011,06,29,09,49,13.40
2011,06,29,09,50,13.40
2011,06,29,09,51,13.40
2011,06,29,09,52,13.40
2011,06,29,09,53,13.40
2011,06,29,09,54,13.30
2011,06,29,09,55,13.30
2011,06,29,09,57,13.30
2011,06,29,09,58,13.30
2011,06,29,09,59,13.30
2011,06,29,10,00,13.30
2011,06,29,10,02,13.30
2011,06,29,10,03,13.20
2011,06,29,10,04,13.20
2011,06,29,10,05,13.20
2011,06,29,10,07,13.20
2011,06,29,10,08,13.20
2011,06,29,10,09,13.20
2011,06,29,10,10,13.20
2011,06,29,10,12,13.30
2011,06,29,10,13,13.30
2011,06,29,10,14,13.30
2011,06,29,10,15,13.30
2011,06,29,10,16,13.40
2011,06,29,10,17,13.40
2011,06,29,10,18,13.40
2011,06,29,10,19,13.40
2011,06,29,10,20,13.40
2011,06,29,10,21,13.40
2011,06,29,10,22,13.40
2011,06,29,10,23,13.40
2011,06,29,10,24,13.40
2011,06,29,10,25,13.40
2011,06,29,10,26,13.40
2011,06,29,10,28,13.40
2011,06,29,10,29,13.40
2011,06,29,10,30,13.40
2011,06,29,10,31,13.40
2011,06,29,10,33,13.50
2011,06,29,10,34,13.50
2011,06,29,10,35,13.50
2011,06,29,10,36,13.50
2011,06,29,10,37,13.50
2011,06,29,10,38,13.50
2011,06,29,10,39,13.50
2011,06,29,10,40,13.50
2011,06,29,10,41,13.50
2011,06,29,10,43,13.50
2011,06,29,10,44,13.40
2011,06,29,10,45,13.40
2011,06,29,10,46,13.40
2011,06,29,10,47,13.40
2011,06,29,10,48,13.40
2011,06,29,10,49,13.40
2011,06,29,10,50,13.40
2011,06,29,10,51,13.40
2011,06,29,10,53,13.40
2011,06,29,10,54,13.40
2011,06,29,10,55,13.30
2011,06,29,10,56,13.30
2011,06,29,10,57,13.30
2011,06,29,10,58,13.30
2011,06,29,10,59,13.30
2011,06,29,11,00,13.30
2011,06,29,11,01,13.30
2011,06,29,11,02,13.30
2011,06,29,11,04,13.30
2011,06,29,11,05,13.30
2011,06,29,11,06,13.40
2011,06,29,11,07,13.40
2011,06,29,11,09,13.40
2011,06,29,11,10,13.40
2011,06,29,11,11,13.40
2011,06,29,11,13,13.50
2011,06,29,11,14,13.50
2011,06,29,11,15,13.50
2011,06,29,11,16,13.50
2011,06,29,11,18,13.50
2011,06,29,11,19,13.40
2011,06,29,11,20,13.40
2011,06,29,11,21,13.40
2011,06,29,11,23,13.40
2011,06,29,11,24,13.40
2011,06,29,11,25,13.30
2011,06,29,11,26,13.30
2011,06,29,11,28,13.30
2011,06,29,11,29,13.30
2011,06,29,11,30,13.40
2011,06,29,11,31,13.40
2011,06,29,11,33,13.40
2011,06,29,11,34,13.40
2011,06,29,11,35,13.40
2011,06,29,11,37,13.50
2011,06,29,11,38,13.50
2011,06,29,11,39,13.50
2011,06,29,11,40,13.50
2011,06,29,11,42,13.60
2011,06,29,11,43,13.60
2011,06,29,11,44,13.60
2011,06,29,11,46,13.70
2011,06,29,11,47,13.70
2011,06,29,11,48,13.70
2011,06,29,11,49,13.70
2011,06,29,11,51,13.80
2011,06,29,11,52,13.80
2011,06,29,11,53,13.90
2011,06,29,11,54,13.90
2011,06,29,11,56,14.00
2011,06,29,11,57,14.10
2011,06,29,11,58,14.10
2011,06,29,11,59,14.10
2011,06,29,12,00,14.10
2011,06,29,12,02,14.20
2011,06,29,12,03,14.20
2011,06,29,12,04,14.20
2011,06,29,12,05,14.20
2011,06,29,12,07,14.20
2011,06,29,12,08,14.20
2011,06,29,12,09,14.20
2011,06,29,12,10,14.20
2011,06,29,12,12,14.20
2011,06,29,12,13,14.20
2011,06,29,12,14,14.30
2011,06,29,12,15,14.30
2011,06,29,12,17,14.40
2011,06,29,12,18,14.40
2011,06,29,12,19,14.40
2011,06,29,12,20,14.50
2011,06,29,12,22,14.60
2011,06,29,12,23,14.60
2011,06,29,12,24,14.60
2011,06,29,12,25,14.60
2011,06,29,12,26,14.60
2011,06,29,12,27,14.60
2011,06,29,12,28,14.60
2011,06,29,12,29,14.60
2011,06,29,12,30,14.70
2011,06,29,12,31,14.70
2011,06,29,12,33,14.70
2011,06,29,12,34,14.70
2011,06,29,12,35,14.70
2011,06,29,12,36,14.80
2011,06,29,12,38,14.80
2011,06,29,12,39,14.80
2011,06,29,12,40,14.80
2011,06,29,12,41,14.80
2011,06,29,12,42,14.90
2011,06,29,12,43,14.90
2011,06,29,12,44,14.90
2011,06,29,12,45,14.90
2011,06,29,12,46,14.90
2011,06,29,12,47,14.90
2011,06,29,12,49,14.90
2011,06,29,12,50,14.90
2011,06,29,12,51,14.90
2011,06,29,12,52,14.90
2011,06,29,12,53,14.90
2011,06,29,12,55,14.80
2011,06,29,12,56,14.80
2011,06,29,12,57,14.80
2011,06,29,12,58,14.80
2011,06,29,12,59,14.80
2011,06,29,13,00,14.80
2011,06,29,13,01,14.80
2011,06,29,13,02,14.80
2011,06,29,13,03,14.90
2011,06,29,13,05,14.90
2011,06,29,13,06,14.90
2011,06,29,13,07,14.90
2011,06,29,13,08,14.90
2011,06,29,13,10,14.90
2011,06,29,13,11,14.90
2011,06,29,13,12,14.90
2011,06,29,13,13,14.90
2011,06,29,13,14,14.90
2011,06,29,13,15,14.90
2011,06,29,13,16,14.90
2011,06,29,13,17,14.90
2011,06,29,13,18,14.90
2011,06,29,13,20,14.90
2011,06,29,13,21,15.00
2011,06,29,13,22,14.90
2011,06,29,13,23,14.90
2011,06,29,13,24,14.90
2011,06,29,13,25,14.90
2011,06,29,13,26,14.90
2011,06,29,13,27,14.90
2011,06,29,13,28,14.90
2011,06,29,13,29,14.90
2011,06,29,13,31,14.90
2011,06,29,13,32,14.90
2011,06,29,13,33,14.90
2011,06,29,13,35,14.90
2011,06,29,13,36,15.10
2011,06,29,13,37,15.10
2011,06,29,13,38,15.20
2011,06,29,13,40,15.20
2011,06,29,13,41,15.20
2011,06,29,13,42,15.30
2011,06,29,13,43,15.30
2011,06,29,13,44,15.30
2011,06,29,13,45,15.40
2011,06,29,13,46,15.40
2011,06,29,13,47,15.60
2011,06,29,13,48,15.60
2011,06,29,13,49,15.70
2011,06,29,13,50,15.80
2011,06,29,13,51,15.90
2011,06,29,13,52,16.10
2011,06,29,13,53,16.20
2011,06,29,13,54,16.20
2011,06,29,13,55,16.30
2011,06,29,13,56,16.40
2011,06,29,13,57,16.50
2011,06,29,13,58,16.50
2011,06,29,13,59,16.60
2011,06,29,14,00,16.60
2011,06,29,14,01,16.70
2011,06,29,14,02,16.80
2011,06,29,14,04,16.90
2011,06,29,14,05,17.10
2011,06,29,14,06,17.20
2011,06,29,14,07,17.30
2011,06,29,14,09,17.40
2011,06,29,14,10,17.60
2011,06,29,14,11,17.70
2011,06,29,14,12,17.70
2011,06,29,14,14,17.80
2011,06,29,14,15,17.80
2011,06,29,14,16,17.80
2011,06,29,14,17,17.70
2011,06,29,14,18,17.70
2011,06,29,14,19,17.80
2011,06,29,14,20,17.80
2011,06,29,14,21,17.80
2011,06,29,14,22,17.80
2011,06,29,14,23,17.80
2011,06,29,14,24,17.80
2011,06,29,14,25,17.90
2011,06,29,14,26,18.00
2011,06,29,14,28,18.10
2011,06,29,14,29,18.10
2011,06,29,14,30,18.10
2011,06,29,14,31,18.10
2011,06,29,14,32,18.00
2011,06,29,14,34,17.90
2011,06,29,14,35,17.90
2011,06,29,14,36,18.00
2011,06,29,14,38,18.10
2011,06,29,14,39,18.10
2011,06,29,14,40,18.20
2011,06,29,14,41,18.20
2011,06,29,14,43,18.30
2011,06,29,14,44,18.50
2011,06,29,14,45,18.60
2011,06,29,14,46,18.40
2011,06,29,14,48,18.40
2011,06,29,14,49,18.60
2011,06,29,14,50,18.70
2011,06,29,14,51,18.80
2011,06,29,14,53,18.90
2011,06,29,14,54,18.70
2011,06,29,14,55,18.50
2011,06,29,14,56,18.40
2011,06,29,14,58,18.50
2011,06,29,14,59,18.50
2011,06,29,15,00,18.60
2011,06,29,15,01,18.60
2011,06,29,15,02,18.70
2011,06,29,15,03,18.80
2011,06,29,15,04,18.80
2011,06,29,15,05,18.70
2011,06,29,15,07,18.60
2011,06,29,15,08,18.30
2011,06,29,15,09,18.30
2011,06,29,15,10,18.30
2011,06,29,15,12,18.30
2011,06,29,15,13,18.20
2011,06,29,15,14,18.10
2011,06,29,15,15,17.90
2011,06,29,15,16,17.80
2011,06,29,15,18,17.80
2011,06,29,15,19,17.70
2011,06,29,15,20,17.60
2011,06,29,15,21,17.60
2011,06,29,15,22,17.50
2011,06,29,15,24,17.40
2011,06,29,15,25,17.50
2011,06,29,15,26,17.60
2011,06,29,15,27,17.60
2011,06,29,15,29,17.60
2011,06,29,15,30,17.70
2011,06,29,15,31,17.60
2011,06,29,15,32,17.60
2011,06,29,15,34,17.50
2011,06,29,15,35,17.50
2011,06,29,15,36,17.50
2011,06,29,15,37,17.60
2011,06,29,15,39,17.60
2011,06,29,15,40,17.70
2011,06,29,15,41,17.80
2011,06,29,15,42,17.80
2011,06,29,15,44,17.80
2011,06,29,15,45,17.70
2011,06,29,15,46,17.70
2011,06,29,15,48,17.80
2011,06,29,15,49,17.70
2011,06,29,15,50,17.60
2011,06,29,15,51,17.40
2011,06,29,15,53,17.40
2011,06,29,15,54,17.40
2011,06,29,15,55,17.40
2011,06,29,15,56,17.40
2011,06,29,15,58,17.50
2011,06,29,15,59,17.60
2011,06,29,16,00,17.60
2011,06,29,16,01,17.70
2011,06,29,16,02,17.70
2011,06,29,16,03,17.70
2011,06,29,16,04,17.70
2011,06,29,16,06,17.70
2011,06,29,16,07,17.70
2011,06,29,16,08,17.60
2011,06,29,16,10,17.60
2011,06,29,16,11,17.60
2011,06,29,16,12,17.50
2011,06,29,16,13,17.40
2011,06,29,16,15,17.50
2011,06,29,16,16,17.50
2011,06,29,16,17,17.50
2011,06,29,16,18,17.50
2011,06,29,16,20,17.60
2011,06,29,16,21,17.60
2011,06,29,16,22,17.60
2011,06,29,16,23,17.70
2011,06,29,16,24,17.70
2011,06,29,16,25,17.70
2011,06,29,16,26,17.60
2011,06,29,16,27,17.60
2011,06,29,16,28,17.50
2011,06,29,16,29,17.40
2011,06,29,16,30,17.30
2011,06,29,16,31,17.20
2011,06,29,16,32,17.10
2011,06,29,16,33,17.10
2011,06,29,16,34,17.10
2011,06,29,16,36,17.20
2011,06,29,16,37,17.20
2011,06,29,16,38,17.20
2011,06,29,16,39,17.30
2011,06,29,16,40,17.20
2011,06,29,16,42,17.30
2011,06,29,16,43,17.30
2011,06,29,16,44,17.30
2011,06,29,16,45,17.20
2011,06,29,16,47,17.20
2011,06,29,16,48,17.30
2011,06,29,16,49,17.30
2011,06,29,16,50,17.30
2011,06,29,16,51,17.40
2011,06,29,16,53,17.40
2011,06,29,16,54,17.40
2011,06,29,16,55,17.40
2011,06,29,16,56,17.40
2011,06,29,16,57,17.60
2011,06,29,16,59,17.60
2011,06,29,17,00,17.60
2011,06,29,17,01,17.60
2011,06,29,17,02,17.40
2011,06,29,17,04,17.30
2011,06,29,17,05,17.20
2011,06,29,17,06,17.20
2011,06,29,17,07,17.20
2011,06,29,17,09,17.10
2011,06,29,17,10,17.10
2011,06,29,17,11,17.10
2011,06,29,17,12,17.20
2011,06,29,17,13,17.20
2011,06,29,17,14,17.30
2011,06,29,17,15,17.30
2011,06,29,17,16,17.30
2011,06,29,17,17,17.30
2011,06,29,17,19,17.20
2011,06,29,17,20,17.10
2011,06,29,17,21,17.10
2011,06,29,17,22,17.10
2011,06,29,17,23,17.00
2011,06,29,17,24,16.90
2011,06,29,17,25,16.90
2011,06,29,17,26,16.90
2011,06,29,17,27,16.90
2011,06,29,17,29,17.00
2011,06,29,17,30,17.00
2011,06,29,17,31,17.10
2011,06,29,17,32,17.00
2011,06,29,17,34,16.90
2011,06,29,17,35,16.80
2011,06,29,17,36,16.80
2011,06,29,17,37,16.80
2011,06,29,17,38,16.90
2011,06,29,17,39,16.90
2011,06,29,17,40,17.00
2011,06,29,17,41,17.10
2011,06,29,17,42,17.10
2011,06,29,17,43,17.10
2011,06,29,17,44,17.10
2011,06,29,17,45,17.10
2011,06,29,17,46,16.90
2011,06,29,17,47,16.80
2011,06,29,17,49,16.80
2011,06,29,17,50,16.90
2011,06,29,17,51,16.90
2011,06,29,17,52,17.00
2011,06,29,17,53,16.90
2011,06,29,17,54,16.90
2011,06,29,17,55,16.80
2011,06,29,17,56,16.80
2011,06,29,17,58,16.80
2011,06,29,17,59,16.70
2011,06,29,18,00,16.70
2011,06,29,18,01,16.70
2011,06,29,18,03,16.70
2011,06,29,18,04,16.70
2011,06,29,18,05,16.70
2011,06,29,18,06,16.80
2011,06,29,18,08,16.80
2011,06,29,18,09,16.80
2011,06,29,18,10,16.70
2011,06,29,18,11,16.70
2011,06,29,18,12,16.80
2011,06,29,18,13,16.80
2011,06,29,18,14,16.70
2011,06,29,18,15,16.70
2011,06,29,18,16,16.70
2011,06,29,18,17,16.70
2011,06,29,18,18,16.60
2011,06,29,18,19,16.60
2011,06,29,18,20,16.60
2011,06,29,18,22,16.60
2011,06,29,18,23,16.60
2011,06,29,18,24,16.60
2011,06,29,18,26,16.60
2011,06,29,18,27,16.40
2011,06,29,18,28,16.40
2011,06,29,18,30,16.40
2011,06,29,18,31,16.40
2011,06,29,18,32,16.40
2011,06,29,18,33,16.40
2011,06,29,18,35,16.40
2011,06,29,18,36,16.40
2011,06,29,18,37,16.40
2011,06,29,18,39,16.40
2011,06,29,18,40,16.40
2011,06,29,18,41,16.40
2011,06,29,18,42,16.40
2011,06,29,18,44,16.40
2011,06,29,18,45,16.20
2011,06,29,18,46,16.20
2011,06,29,18,47,16.20
2011,06,29,18,49,16.20
2011,06,29,18,50,16.30
2011,06,29,18,51,16.30
2011,06,29,18,52,16.30
2011,06,29,18,54,16.20
2011,06,29,18,55,16.20
2011,06,29,18,56,16.10
2011,06,29,18,57,16.00
2011,06,29,18,59,15.90
2011,06,29,19,00,15.90
2011,06,29,19,01,15.90
2011,06,29,19,02,15.90
2011,06,29,19,04,15.80
2011,06,29,19,05,15.70
2011,06,29,19,06,15.60
2011,06,29,19,07,15.50
2011,06,29,19,09,15.40
2011,06,29,19,10,15.30
2011,06,29,19,11,15.30
2011,06,29,19,12,15.30
2011,06,29,19,14,15.30
2011,06,29,19,15,15.30
2011,06,29,19,16,15.30
2011,06,29,19,18,15.40
2011,06,29,19,19,15.30
2011,06,29,19,20,15.30
2011,06,29,19,21,15.20
2011,06,29,19,23,15.20
2011,06,29,19,24,15.20
2011,06,29,19,25,15.20
2011,06,29,19,26,15.10
2011,06,29,19,28,15.10
2011,06,29,19,29,15.00
2011,06,29,19,30,14.90
2011,06,29,19,31,14.90
2011,06,29,19,32,14.90
2011,06,29,19,33,14.90
2011,06,29,19,34,14.80
2011,06,29,19,35,14.80
2011,06,29,19,36,14.80
2011,06,29,19,37,14.80
2011,06,29,19,38,14.80
2011,06,29,19,39,14.80
2011,06,29,19,40,14.80
2011,06,29,19,41,14.80
2011,06,29,19,43,14.80
2011,06,29,19,44,14.80
2011,06,29,19,45,14.70
2011,06,29,19,46,14.70
2011,06,29,19,48,14.70
2011,06,29,19,49,14.70
2011,06,29,19,50,14.70
2011,06,29,19,51,14.70
2011,06,29,19,52,14.70
2011,06,29,19,53,14.70
2011,06,29,19,54,14.70
2011,06,29,19,55,14.70
2011,06,29,19,56,14.70
2011,06,29,19,57,14.60
2011,06,29,19,59,14.60
2011,06,29,20,00,14.50
2011,06,29,20,01,14.50
2011,06,29,20,02,14.50
2011,06,29,20,04,14.50
2011,06,29,20,05,14.40
2011,06,29,20,06,14.30
2011,06,29,20,07,14.30
2011,06,29,20,09,14.20
2011,06,29,20,10,14.20
2011,06,29,20,11,14.10
2011,06,29,20,12,14.00
2011,06,29,20,14,13.90
2011,06,29,20,15,13.80
2011,06,29,20,16,13.70
2011,06,29,20,18,13.70
2011,06,29,20,19,13.70
2011,06,29,20,20,13.60
2011,06,29,20,21,13.60
2011,06,29,20,22,13.60
2011,06,29,20,24,13.50
2011,06,29,20,25,13.50
2011,06,29,20,26,13.50
2011,06,29,20,27,13.50
2011,06,29,20,29,13.50
2011,06,29,20,30,13.60
2011,06,29,20,31,13.60
2011,06,29,20,32,13.60
2011,06,29,20,34,13.60
2011,06,29,20,35,13.60
2011,06,29,20,36,13.50
2011,06,29,20,37,13.50
2011,06,29,20,39,13.50